Simultaneous Nadir Overpasses (SNOs) Predictions

Prediction of SNOs between GOES-16 and AQUA Satellite Orbit:

Table of predicted SNOs for the next 14.0 days since TLE Epoch: 6/29/2018
Index Date Time (GOES-16) GOES-16 Lat,Lon AQUA Lat,Lon Distance(km) Time Diff (sec)
1 06/30/2018 06:50:52 -0.01, -75.20 0.62, -78.30 352.63 80
2 07/02/2018 06:38:40 -0.02, -75.21 0.03, -75.34 15.65 80
3 07/04/2018 06:23:49 -0.02, -75.22 -0.64, -72.39 322.19 80
4 07/04/2018 18:45:12 0.02, -75.23 -0.49, -77.58 267.84 80
5 07/06/2018 18:35:42 0.02, -75.25 0.18, -74.63 70.70 80
6 07/08/2018 18:23:30 0.03, -75.27 0.80, -71.67 409.38 80
7 07/09/2018 06:44:44 -0.03, -75.28 0.33, -76.83 176.18 80
8 07/11/2018 06:29:53 -0.03, -75.31 -0.35, -73.88 162.61 80
9 07/11/2018 18:51:17 0.04, -75.31 -0.75, -79.07 427.36 80
10 07/13/2018 18:39:05 0.04, -75.34 -0.13, -76.11 88.14 80




NCC Satellite Simultaneous Nadir Overpasses (SNOs) Prediction Service
